Date,TemperatureHighF,TemperatureAvgF,TemperatureLowF,DewpointHighF,DewpointAvgF,DewpointLowF,HumidityHigh,HumidityAvg,HumidityLow,PressureMaxIn,PressureMinIn,WindSpeedMaxMPH,WindSpeedAvgMPH,GustSpeedMaxMPH,PrecipitationSumIn
2013-1-1,24.9,23.0,20.9,23.0,21.9,20.0,98,95,91,30.70,30.55,0,0,1,0.00
2013-1-2,22.8,21.1,20.2,21.0,20.0,19.0,97,95,90,30.69,30.58,0,0,0,0.00
2013-1-3,23.1,20.4,18.2,21.0,19.0,16.0,96,94,87,30.58,30.40,0,0,1,0.00
2013-1-4,26.5,22.5,19.8,24.0,21.4,19.0,97,95,89,30.50,30.42,0,0,1,0.00
2013-1-5,26.5,23.9,22.1,25.0,23.0,21.0,98,96,94,30.49,30.24,0,0,0,0.00
2013-1-6,30.6,25.1,20.8,29.0,24.3,20.0,98,96,91,30.26,30.10,0,0,1,0.00
2013-1-7,32.6,28.8,24.8,33.0,28.3,24.0,100,99,97,30.14,29.91,0,0,1,0.00
2013-1-8,33.1,32.2,31.4,33.0,32.2,31.0,100,100,99,30.15,29.78,0,0,1,0.00
2013-1-9,36.5,32.1,29.4,36.0,32.1,29.0,100,100,96,29.87,29.63,0,0,2,0.00
2013-1-10,33.0,27.0,21.9,32.0,26.6,21.0,100,98,92,30.03,29.87,3,0,7,0.00
2013-1-11,25.1,18.3,9.1,22.0,17.0,8.0,98,94,86,30.34,30.04,0,0,1,0.00
2013-1-12,21.7,10.7,4.5,19.0,9.2,3.0,95,93,90,30.51,30.35,0,0,1,0.00
2013-1-13,23.7,11.4,0.4,22.0,9.7,-2.0,97,92,85,30.60,30.49,0,0,1,0.00
2013-1-14,35.5,24.6,16.6,31.0,22.8,16.0,97,93,81,30.52,30.38,5,0,9,0.00
2013-1-15,29.8,19.8,13.0,26.0,18.3,12.0,97,93,83,30.66,30.51,0,0,2,0.00
2013-1-16,23.6,17.4,10.3,22.0,16.2,9.0,96,94,91,30.71,30.61,1,0,2,0.00
2013-1-17,26.5,21.5,18.9,24.0,20.2,18.0,97,94,87,30.68,30.44,3,0,4,0.00
2013-1-18,24.0,18.7,15.4,22.0,17.5,14.0,97,95,90,30.45,30.33,0,0,2,0.00
2013-1-19,25.6,17.4,11.8,24.0,16.2,10.0,97,95,90,30.56,30.45,0,0,0,0.00
2013-1-20,29.0,16.4,6.7,27.0,15.0,5.0,96,94,88,30.64,30.52,1,0,1,0.00
2013-1-21,24.5,18.4,14.8,23.0,17.4,14.0,97,95,93,30.52,30.38,0,0,2,0.00
2013-1-22,22.3,18.2,15.8,20.0,16.7,15.0,96,93,88,30.42,30.26,0,0,1,0.00
2013-1-23,26.7,22.6,17.8,25.0,21.5,17.0,97,95,90,30.27,30.04,0,0,1,0.00
2013-1-24,26.1,21.1,12.5,24.0,20.1,11.0,97,95,92,30.31,30.14,0,0,4,0.00
2013-1-25,32.9,26.9,22.6,31.0,26.1,22.0,98,96,91,30.23,29.99,1,0,3,0.00
2013-1-26,32.1,28.0,25.5,30.0,27.1,25.0,98,95,89,30.02,29.94,1,0,2,0.00
2013-1-27,33.5,26.0,17.5,31.0,24.9,16.0,97,95,90,30.05,29.98,0,0,2,0.00
2013-1-28,34.4,28.6,21.2,34.0,28.0,20.0,100,98,96,30.01,29.93,0,0,1,0.00
2013-1-29,39.9,34.0,32.1,38.0,33.7,32.0,100,99,92,30.24,29.96,2,0,6,0.01
2013-1-30,46.2,35.1,29.7,40.0,33.2,30.0,100,93,75,30.31,30.24,6,0,11,0.26
2013-1-31,44.7,34.4,29.0,38.0,32.7,29.0,100,93,76,30.33,30.24,4,0,9,0.08
2013-2-1,44.8,30.9,24.9,36.0,29.2,24.0,99,94,68,30.52,30.29,0,0,2,0.02
2013-2-2,42.5,28.5,20.0,35.0,26.3,19.0,98,92,72,30.52,30.31,0,0,3,0.01
2013-2-3,44.2,30.6,21.6,36.0,27.8,21.0,98,90,68,30.31,30.17,2,0,11,0.00
2013-2-4,45.5,34.7,31.1,37.0,32.5,30.0,98,92,69,30.18,29.97,0,0,2,0.00
2013-2-5,43.4,34.3,28.9,40.0,32.7,28.0,99,94,76,29.96,29.82,1,0,3,0.02
2013-2-6,39.8,34.0,31.5,39.0,33.7,31.0,99,98,95,30.04,29.93,0,0,1,0.13
2013-2-7,41.3,33.3,25.8,36.0,31.0,25.0,100,92,65,30.14,29.88,2,0,5,0.04
2013-2-8,41.4,28.7,20.3,29.0,24.7,19.0,97,86,58,30.25,30.15,2,0,7,0.00
2013-2-9,41.9,30.8,25.0,31.0,27.0,24.0,96,86,65,30.30,30.16,1,0,10,0.00
2013-2-10,45.5,29.2,19.9,32.0,25.5,19.0,97,88,50,30.34,30.23,2,0,3,0.00
2013-2-11,45.6,32.4,23.3,34.0,28.6,23.0,97,87,62,30.28,30.21,2,0,8,0.00
2013-2-12,47.4,36.7,30.7,35.0,31.6,28.0,95,82,57,30.33,30.18,2,0,8,0.00
2013-2-13,45.6,38.3,28.3,35.0,31.5,27.0,94,77,58,30.42,30.20,5,0,10,0.00
2013-2-14,47.3,33.6,26.9,35.0,29.5,25.0,96,86,59,30.56,30.43,2,0,7,0.00
2013-2-15,47.4,32.3,23.9,36.0,29.1,23.0,97,89,65,30.58,30.31,1,0,3,0.00
2013-2-16,45.8,32.0,23.7,39.0,29.5,23.0,97,91,56,30.32,30.04,1,0,5,0.06
2013-2-17,41.1,31.3,25.1,37.0,28.8,24.0,99,91,64,30.18,30.10,2,0,8,0.01
2013-2-18,37.0,28.6,22.0,31.0,25.6,21.0,96,89,71,30.14,29.82,0,0,1,0.00
2013-2-19,42.5,30.3,22.1,29.0,25.0,21.0,96,82,49,29.99,29.80,1,0,3,0.00
2013-2-20,40.9,28.5,19.1,29.0,23.8,18.0,96,84,57,30.05,29.98,3,0,6,0.00
2013-2-21,41.5,31.0,23.5,33.0,28.2,22.0,97,90,67,30.05,29.99,2,0,4,0.00
2013-2-22,34.3,31.7,28.4,33.0,31.1,28.0,99,97,95,30.00,29.64,1,0,5,0.09
2013-2-23,39.7,31.8,27.5,37.0,31.0,27.0,99,96,90,30.32,29.81,2,0,5,0.36
2013-2-24,41.1,32.1,27.5,37.0,31.0,27.0,98,95,75,30.33,30.02,1,0,3,0.14
2013-2-25,38.5,32.6,29.7,36.0,31.7,28.0,98,96,85,30.22,29.89,0,0,6,0.15
2013-2-26,42.4,33.3,27.3,32.0,28.6,25.0,97,85,50,30.34,30.22,0,0,2,0.07
2013-2-27,45.3,35.3,29.6,33.0,30.5,27.0,98,84,50,30.29,30.21,2,0,5,0.02
2013-2-28,35.4,33.2,31.4,35.0,32.6,30.0,99,97,95,30.37,30.26,0,0,1,0.44
2013-3-1,46.6,36.8,32.4,46.0,36.4,32.0,99,98,93,30.35,30.29,2,0,4,0.10
2013-3-2,52.5,38.1,31.0,44.0,34.9,29.0,99,90,57,30.30,29.95,2,0,10,0.03
2013-3-3,42.5,34.6,29.4,30.0,28.0,24.0,94,79,48,30.15,30.06,3,0,7,0.01
2013-3-8,29.1,25.8,27.7,27.0,3.7,-99.9,94,77,93,30.21,30.17,0,-91,0,0.00
2013-3-9,51.9,34.6,22.0,31.0,25.2,20.0,97,74,30,30.45,30.22,2,0,7,0.00
2013-3-10,47.4,36.9,29.7,34.0,30.4,26.0,93,79,55,30.46,30.31,4,0,8,0.00
2013-3-11,50.5,34.7,25.1,34.0,27.7,22.0,97,80,33,30.39,30.24,2,0,3,0.00
2013-3-12,48.3,39.1,32.8,45.0,37.0,32.0,98,92,80,30.23,30.05,1,0,7,0.07
2013-3-13,53.7,41.8,34.2,44.0,38.5,33.0,98,89,68,30.16,30.09,3,0,6,0.00
2013-3-14,55.3,39.9,32.9,45.0,36.4,32.0,99,88,49,30.14,30.00,2,0,5,0.00
2013-3-15,54.1,41.1,33.6,41.0,36.4,32.0,98,85,55,30.18,30.09,2,0,8,0.00
2013-3-16,49.0,36.7,30.8,40.0,33.9,30.0,99,90,61,30.09,29.78,2,0,7,0.08
2013-3-17,39.8,34.0,31.0,34.0,31.2,28.0,98,90,64,30.10,29.83,3,0,11,0.18
2013-3-18,39.8,33.0,26.8,35.0,29.6,25.0,98,88,61,30.25,30.04,4,0,8,0.23
2013-3-19,43.0,32.4,23.3,32.0,25.8,22.0,96,79,45,30.27,29.82,1,0,5,0.02
2013-3-20,40.9,34.0,31.1,39.0,33.3,30.0,98,97,93,29.87,29.52,6,0,6,0.48
2013-3-21,40.8,32.8,28.2,32.0,28.8,25.0,98,86,54,30.14,29.87,2,0,7,0.05
2013-3-22,41.1,31.5,24.9,31.0,25.1,21.0,96,79,48,30.36,30.14,2,0,8,0.03
2013-3-23,43.6,30.6,21.5,26.0,21.4,17.0,93,72,35,30.40,30.28,2,0,6,0.00
2013-3-24,45.8,32.3,20.6,28.0,22.9,19.0,95,72,38,30.39,30.22,2,0,5,0.00
2013-3-25,48.9,32.7,20.9,29.0,24.0,20.0,96,75,35,30.25,30.03,2,0,5,0.00
2013-3-26,55.6,37.3,23.2,36.0,28.4,22.0,96,75,36,30.08,29.95,1,0,5,0.00
2013-3-27,54.5,38.6,30.4,38.0,33.0,29.0,96,83,48,30.04,29.96,2,0,5,0.00
2013-3-28,56.1,38.8,28.2,41.0,33.9,27.0,98,84,52,30.15,30.04,2,0,3,0.00
2013-3-29,60.6,41.7,28.0,40.0,32.6,27.0,98,75,37,30.26,30.16,4,0,6,0.00
2013-3-30,62.6,42.6,27.1,42.0,33.6,26.0,98,75,39,30.33,30.13,2,0,3,0.00
2013-3-31,66.8,43.6,28.1,44.0,34.7,27.0,98,76,36,30.17,29.94,2,0,4,0.00
2013-4-1,68.0,46.3,29.4,44.0,36.8,28.0,98,75,37,30.06,29.95,3,0,7,0.00
2013-4-2,60.0,45.3,32.5,43.0,38.5,32.0,98,79,53,30.12,30.06,3,0,9,0.00
2013-4-3,64.1,47.6,31.4,42.0,37.0,30.0,98,72,31,30.13,29.99,2,0,6,0.00
2013-4-4,46.3,41.9,37.9,46.0,40.4,36.0,98,94,86,29.99,29.71,0,0,2,0.19
2013-4-5,51.8,43.4,39.0,48.0,42.0,39.0,99,95,80,29.86,29.75,1,0,4,0.34
2013-4-6,50.0,42.2,36.2,44.0,39.2,35.0,99,90,66,29.87,29.73,2,0,6,0.12
2013-4-7,46.3,37.6,30.2,42.0,34.6,29.0,98,89,68,29.80,29.53,3,0,8,0.31
2013-4-8,53.3,41.6,31.5,39.0,35.1,30.0,98,80,54,30.25,29.82,2,0,7,0.00
2013-4-9,55.2,40.2,28.7,41.0,34.0,28.0,98,81,44,30.33,30.18,2,0,4,0.00
2013-4-10,50.5,43.9,40.1,48.0,40.3,36.0,98,88,65,30.18,29.87,5,0,13,0.27
2013-4-11,51.7,41.2,29.6,37.0,32.9,28.0,96,75,47,30.18,30.12,4,0,9,0.00
2013-4-12,50.0,36.7,28.3,37.0,32.1,27.0,96,85,46,30.15,29.61,1,0,6,0.03
2013-4-13,38.7,34.2,30.3,37.0,32.5,29.0,97,93,81,29.94,29.61,2,0,6,0.08
2013-4-14,48.2,35.4,27.5,36.0,30.5,27.0,97,84,52,29.98,29.88,2,0,5,0.01
2013-4-15,43.4,33.9,27.6,39.0,32.0,27.0,97,93,72,30.20,29.93,1,0,2,0.08
2013-4-16,48.3,37.5,28.7,35.0,30.1,21.0,98,78,37,30.42,30.20,2,0,5,0.00
2013-4-17,55.0,39.0,25.0,35.0,29.5,24.0,96,73,39,30.46,30.36,3,0,8,0.00
2013-4-18,55.1,43.8,32.1,39.0,36.1,31.0,96,76,51,30.36,30.16,3,0,8,0.00
2013-4-19,57.0,46.2,38.0,44.0,39.9,36.0,97,80,57,30.16,29.97,2,0,8,0.00
2013-4-20,55.8,47.5,40.1,39.0,37.0,36.0,92,69,48,30.13,30.06,5,0,13,0.00
2013-4-21,53.4,43.7,30.7,37.0,34.6,29.0,93,72,51,30.33,30.09,4,0,7,0.00
2013-4-22,57.0,40.4,25.0,33.0,25.3,15.0,96,64,20,30.52,30.33,3,0,6,0.00
2013-4-23,59.8,41.3,26.5,39.0,29.2,23.0,95,69,26,30.42,30.21,3,0,5,0.00
2013-4-24,66.5,45.9,27.1,36.0,30.7,23.0,97,63,19,30.35,30.02,3,0,9,0.00
2013-4-25,67.6,49.8,30.4,43.0,37.0,29.0,96,67,36,30.11,29.97,3,0,9,0.00
2013-4-26,71.9,53.2,36.9,48.0,38.0,30.0,96,65,22,30.15,30.10,3,0,9,0.00
2013-4-27,60.3,46.7,34.0,42.0,37.1,30.0,97,72,32,30.14,30.07,2,0,8,0.00
2013-4-28,56.3,47.4,39.4,40.0,37.5,35.0,93,70,45,30.09,29.88,5,0,10,0.04
2013-4-29,46.6,40.3,34.7,38.0,31.3,25.0,98,73,46,30.05,29.78,4,0,13,0.11
2013-4-30,50.5,39.4,28.8,32.0,28.2,24.0,92,67,37,30.42,30.05,6,0,8,0.00
2013-5-1,60.5,42.4,24.7,38.0,27.3,15.0,96,64,17,30.59,30.43,2,0,5,0.00
2013-5-2,70.7,50.5,29.2,42.0,33.7,28.0,96,60,22,30.61,30.29,3,0,5,0.00
2013-5-3,75.0,54.5,33.2,45.0,37.4,31.0,96,61,21,30.34,30.14,2,0,8,0.00
2013-5-4,74.1,54.1,32.0,46.0,36.6,31.0,97,60,21,30.30,30.02,4,0,8,0.00
2013-5-5,77.6,55.8,33.5,45.0,36.4,29.0,97,58,17,30.08,29.81,4,0,7,0.00
2013-5-6,82.5,58.7,34.4,46.0,37.6,31.0,97,56,16,29.92,29.70,2,0,6,0.00
2013-5-7,85.0,62.4,38.9,50.0,44.4,37.0,96,60,23,29.87,29.73,3,0,9,0.00
2013-5-8,84.1,63.2,42.9,51.0,47.3,41.0,94,62,27,30.00,29.87,2,0,7,0.00
2013-5-9,85.9,63.0,39.7,50.0,42.5,30.0,97,58,13,30.07,29.96,2,0,8,0.00
2013-5-10,87.9,63.0,38.4,50.0,42.0,33.0,96,56,14,30.12,30.02,2,0,6,0.00
2013-5-11,83.3,63.6,45.2,54.0,46.8,42.0,90,61,24,30.11,29.92,1,0,5,0.00
2013-5-12,70.0,59.0,48.5,53.0,47.8,45.0,91,69,43,30.00,29.92,3,0,7,0.00
2013-5-13,60.0,51.6,41.0,51.0,46.5,40.0,97,84,62,30.08,29.85,1,0,4,0.15
2013-5-14,59.1,46.8,36.5,43.0,37.9,34.0,98,75,41,30.17,30.07,2,0,10,0.01
2013-5-15,65.7,50.1,33.2,45.0,38.2,32.0,98,69,31,30.11,29.91,2,0,4,0.00
2013-5-16,68.5,52.6,42.0,51.0,44.5,40.0,96,77,37,29.95,29.82,2,0,5,0.00
2013-5-17,64.4,51.4,39.4,49.0,43.8,38.0,98,77,51,29.97,29.86,3,0,6,0.00
2013-5-18,62.8,52.5,41.7,43.0,40.5,38.0,86,66,43,30.18,29.97,4,0,8,0.00
2013-5-19,66.1,50.5,34.2,44.0,39.2,33.0,98,69,40,30.29,30.19,5,0,10,0.00
2013-5-20,74.2,54.8,33.8,47.0,39.8,33.0,98,64,26,30.29,29.81,2,0,7,0.00
2013-5-21,49.3,44.7,35.8,47.0,42.6,35.0,97,92,79,29.80,29.64,1,0,5,0.41
2013-5-22,50.3,41.7,35.6,44.0,39.3,35.0,98,92,61,29.96,29.76,2,0,6,0.33
2013-5-23,52.7,43.9,38.8,48.0,42.0,38.0,98,93,70,30.00,29.95,1,0,5,0.17
2013-5-24,59.8,45.5,36.1,49.0,41.6,35.0,98,87,52,30.00,29.93,3,0,5,0.05
2013-5-25,61.4,47.6,34.1,48.0,40.5,33.0,98,79,43,30.00,29.94,2,0,4,0.00
2013-5-26,61.5,48.8,38.2,51.0,44.1,37.0,98,85,63,29.97,29.91,1,0,5,0.02
2013-5-27,53.0,46.5,34.5,50.0,44.3,33.0,98,92,75,29.93,29.76,1,0,2,0.13
2013-5-28,63.6,51.9,40.8,51.0,45.0,40.0,98,80,50,29.81,29.72,2,0,6,0.00
2013-5-29,59.0,47.6,40.0,51.0,43.5,39.0,97,86,62,29.90,29.64,1,0,7,0.05
2013-5-30,61.2,48.3,34.6,43.0,38.3,34.0,98,72,44,30.18,29.90,6,0,10,0.00
2013-5-31,68.8,51.6,33.5,45.0,38.1,31.0,98,66,26,30.27,30.17,3,0,6,0.00
2013-6-1,71.3,54.9,39.3,46.0,42.9,38.0,96,68,36,30.21,29.98,4,0,6,0.00
2013-6-2,68.4,54.4,41.0,47.0,42.8,39.0,95,69,41,30.02,29.90,6,1,9,0.00
2013-6-3,75.1,58.1,37.7,50.0,42.9,36.0,98,63,31,30.05,29.94,3,0,10,0.00
2013-6-4,79.0,59.8,38.8,53.0,44.6,38.0,97,64,26,30.12,29.95,2,0,4,0.00
2013-6-5,81.6,63.3,44.4,52.0,48.1,43.0,96,64,29,30.01,29.91,5,0,7,0.00
2013-6-6,84.8,65.1,43.6,51.0,45.6,36.0,96,57,19,29.97,29.85,3,0,7,0.00
2013-6-7,71.6,59.0,48.6,53.0,48.0,43.0,89,68,52,30.00,29.88,3,0,11,0.00
2013-6-8,77.1,59.4,41.6,46.0,42.6,37.0,91,59,25,30.05,29.94,4,0,10,0.00
2013-6-9,71.7,56.6,41.0,45.0,39.8,35.0,95,59,30,29.97,29.88,5,1,11,0.00
2013-6-10,74.5,56.2,35.4,44.0,38.6,31.0,96,58,21,29.93,29.72,5,0,8,0.00
2013-6-11,63.3,52.6,42.0,45.0,40.1,36.0,91,65,38,30.02,29.79,4,1,9,0.00
2013-6-12,67.5,51.5,35.0,41.0,38.0,34.0,97,65,35,30.07,30.00,3,0,8,0.00
2013-6-13,68.2,51.9,35.4,44.0,39.9,34.0,96,67,36,30.13,30.02,4,1,9,0.00
2013-6-14,69.5,54.6,38.2,46.0,42.1,37.0,95,67,40,30.14,30.00,4,0,9,0.00
2013-6-15,78.2,58.5,36.1,58.0,45.1,35.0,97,67,32,30.03,29.88,2,0,5,0.00
2013-6-16,83.2,64.5,44.9,54.0,48.4,42.0,95,62,25,29.99,29.85,5,0,7,0.00
2013-6-17,77.6,64.5,51.8,53.0,49.0,46.0,91,61,33,29.98,29.77,5,0,9,0.00
2013-6-18,71.0,56.8,46.9,54.0,48.9,43.0,97,78,39,29.86,29.77,1,0,5,0.48
2013-6-19,59.8,52.7,48.8,51.0,48.1,45.0,98,85,63,29.91,29.78,4,0,11,0.02
2013-6-20,56.7,51.4,47.2,48.0,45.6,43.0,92,81,64,30.02,29.84,3,0,8,0.01
2013-6-22,68.2,54.5,54.8,57.0,37.8,-99.9,86,70,68,29.86,29.83,0,-53,0,0.00
2013-6-23,69.8,58.9,46.7,58.0,52.4,45.0,96,80,56,29.86,29.59,2,0,2,0.02
2013-6-24,60.5,55.7,46.5,57.0,53.7,45.0,98,93,79,29.68,29.54,1,0,3,0.14
2013-6-25,65.1,54.0,42.9,56.0,50.0,42.0,98,87,64,29.83,29.68,3,0,6,0.03
2013-6-26,67.4,55.9,45.5,58.0,51.0,45.0,98,85,57,30.08,29.83,1,0,5,0.01
2013-6-27,67.7,56.8,49.0,60.0,53.6,48.0,98,89,67,30.21,30.07,0,0,3,0.04
2013-6-28,83.4,66.7,53.2,68.0,59.0,52.0,98,79,45,30.21,29.98,3,0,6,0.00
2013-6-29,81.2,66.2,54.3,69.0,61.6,53.0,98,86,51,30.04,29.94,1,0,4,0.05
2013-6-30,89.5,69.6,50.8,68.0,59.1,50.0,98,74,35,30.01,29.86,3,0,5,0.00
2013-7-1,92.4,70.9,54.0,71.0,61.1,53.0,98,75,31,29.97,29.82,1,0,3,0.00
2013-7-2,96.7,75.1,57.3,70.0,57.3,49.0,96,61,20,29.94,29.84,3,0,11,0.00
2013-7-3,86.1,71.0,54.8,57.0,50.8,44.0,89,53,23,29.97,29.84,5,0,9,0.00
2013-7-4,79.3,64.7,48.3,51.0,46.3,40.0,91,56,25,29.91,29.82,6,1,10,0.00
2013-7-5,73.3,62.0,47.6,51.0,47.8,44.0,88,62,41,29.87,29.80,5,0,9,0.00
2013-7-6,83.7,61.7,45.1,57.0,49.4,44.0,96,70,25,29.89,29.73,2,0,5,0.00
2013-7-7,84.7,64.9,49.9,62.0,55.1,48.0,96,75,30,29.85,29.72,2,0,5,0.05
2013-7-8,81.8,62.3,49.1,60.0,53.4,48.0,98,77,35,30.00,29.83,2,0,5,0.01
2013-7-9,89.0,69.0,49.2,59.0,53.4,48.0,97,64,24,30.05,29.87,2,0,5,0.00
2013-7-10,85.1,67.6,50.9,58.0,50.2,44.0,96,59,29,29.91,29.76,5,0,10,0.00
2013-7-11,72.5,62.8,55.6,50.0,44.3,40.0,75,53,31,29.89,29.80,3,0,11,0.00
2013-7-12,66.5,56.3,46.6,49.0,43.1,40.0,82,63,43,30.00,29.88,1,0,9,0.00
2013-7-13,78.7,59.5,39.2,49.0,41.4,28.0,96,59,17,30.12,30.00,4,0,7,0.00
2013-7-14,84.7,62.9,41.2,47.0,40.5,30.0,96,53,14,30.08,29.88,3,0,7,0.00
2013-7-15,83.4,63.3,41.5,48.0,41.7,32.0,92,53,16,29.98,29.84,1,0,4,0.00
2013-7-16,86.9,65.4,43.7,61.0,48.9,41.0,94,62,20,29.97,29.77,2,0,5,0.01
2013-7-17,86.3,69.8,53.9,62.0,53.6,46.0,95,62,28,30.02,29.83,3,0,7,0.00
2013-7-18,89.4,68.5,47.1,54.0,48.8,39.0,96,57,18,30.09,29.94,3,0,6,0.00
2013-7-19,92.4,69.6,45.9,56.0,47.9,38.0,95,55,15,30.03,29.86,2,0,8,0.00
2013-7-20,89.6,68.7,48.4,53.0,49.3,44.0,87,56,21,29.92,29.77,2,0,12,0.00
2013-7-21,88.7,70.3,48.5,56.0,51.0,45.0,89,55,26,29.80,29.70,4,0,10,0.00
2013-7-22,86.8,69.7,49.3,56.0,52.3,46.0,90,58,29,29.90,29.77,3,0,10,0.00
2013-7-23,92.8,70.5,50.4,57.0,51.5,40.0,93,59,16,29.94,29.80,3,0,7,0.00
2013-7-24,92.5,72.8,50.8,58.0,50.2,38.0,90,53,16,29.92,29.81,3,0,7,0.00
2013-7-25,92.2,72.0,49.7,55.0,48.5,39.0,91,51,16,29.95,29.88,4,0,12,0.00
2013-7-26,92.1,71.3,48.2,50.0,44.7,36.0,86,46,15,30.00,29.90,4,0,8,0.00
2013-7-27,82.7,66.3,48.7,54.0,45.6,40.0,85,51,24,29.97,29.82,4,0,7,0.00
2013-7-28,82.3,66.6,46.5,51.0,47.2,42.0,90,54,24,29.86,29.75,4,0,9,0.00
2013-7-29,84.3,67.1,47.3,55.0,49.6,43.0,94,59,24,29.88,29.77,1,0,5,0.00
2013-7-30,85.7,67.4,52.3,57.0,51.1,41.0,89,62,21,30.02,29.88,2,0,5,0.00
2013-7-31,82.3,64.5,50.6,64.0,54.0,47.0,90,72,35,30.04,29.88,1,0,5,0.01
2013-8-1,78.2,62.7,47.9,61.0,53.2,47.0,97,74,42,29.94,29.80,2,0,9,0.00
2013-8-2,69.7,60.5,54.7,57.0,53.2,51.0,97,78,57,30.03,29.91,4,0,6,0.11
2013-8-3,79.1,63.7,51.1,62.0,55.3,49.0,94,76,44,30.06,29.93,1,0,5,0.00
2013-8-4,84.5,65.8,49.7,62.0,55.9,49.0,98,74,34,30.01,29.87,2,0,6,0.00
2013-8-5,88.6,68.8,50.0,61.0,53.9,49.0,97,65,28,29.94,29.80,6,0,6,0.00
2013-8-6,90.5,69.7,48.5,58.0,48.1,33.0,96,56,13,29.91,29.79,2,0,7,0.00
2013-8-7,89.4,69.3,47.5,55.0,50.0,45.0,92,56,25,29.89,29.79,2,0,6,0.00
2013-8-8,88.0,70.1,50.7,59.0,52.8,46.0,90,59,23,29.90,29.78,2,0,7,0.00
2013-8-9,91.9,72.6,53.1,62.0,54.9,47.0,93,60,22,29.85,29.67,1,0,7,0.00
2013-8-10,86.7,71.3,60.7,69.0,61.9,58.0,98,75,38,29.88,29.73,3,0,5,0.38
2013-8-11,79.1,64.6,56.1,65.0,59.3,55.0,98,85,51,29.97,29.82,2,0,8,0.15
2013-8-12,82.5,64.6,49.1,62.0,55.4,48.0,98,76,32,29.97,29.85,4,0,5,0.04
2013-8-13,85.0,66.8,50.9,60.0,53.4,44.0,98,68,24,30.00,29.85,2,0,3,0.01
2013-8-14,80.3,64.2,48.6,66.0,55.1,47.0,97,74,46,29.91,29.80,1,0,6,0.01
2013-8-15,75.0,65.3,57.9,66.0,59.4,55.0,94,82,61,29.92,29.84,1,0,4,0.00
2013-8-16,81.4,65.1,49.4,60.0,54.5,48.0,97,72,39,29.96,29.86,4,0,6,0.01
2013-8-17,75.0,63.0,50.5,60.0,52.6,49.0,95,71,45,29.98,29.92,2,0,9,0.00
2013-8-18,80.8,63.4,47.3,56.0,50.3,46.0,96,67,33,30.03,29.95,4,0,8,0.00
2013-8-19,76.9,62.6,50.3,56.0,50.8,47.0,92,68,41,30.00,29.94,3,0,9,0.00
2013-8-20,78.6,61.8,44.0,53.0,47.5,42.0,95,65,29,30.05,29.95,3,0,6,0.00
2013-8-21,82.4,62.2,42.0,59.0,48.1,40.0,95,66,26,30.07,29.89,1,0,3,0.00
2013-8-22,83.9,64.5,44.9,61.0,52.5,43.0,96,70,27,29.95,29.73,1,0,3,0.00
2013-8-23,75.2,65.0,58.2,63.0,56.3,51.0,97,75,48,29.78,29.71,2,0,6,0.02
2013-8-24,75.8,62.3,48.9,54.0,50.3,47.0,94,68,41,29.81,29.72,4,0,6,0.00
2013-8-25,73.0,60.4,47.4,59.0,50.5,45.0,93,72,41,29.88,29.76,1,0,4,0.01
2013-8-26,74.9,61.5,49.2,58.0,53.2,48.0,95,77,44,29.90,29.79,1,0,6,0.01
2013-8-27,76.1,62.3,50.8,59.0,54.3,50.0,97,78,46,29.93,29.75,0,0,3,0.00
2013-8-28,77.3,63.1,53.0,64.0,57.2,51.0,96,82,50,29.86,29.76,3,0,4,0.02
2013-8-29,66.5,60.4,55.9,63.0,58.9,55.0,98,94,78,29.97,29.85,0,0,5,0.16
2013-8-30,71.7,60.4,49.2,58.0,52.4,47.0,98,78,46,30.10,29.97,2,0,8,0.01
2013-8-31,78.8,59.0,40.9,58.0,48.9,40.0,98,74,36,30.09,29.86,1,0,4,0.00
2013-9-1,86.5,64.7,45.0,61.0,52.0,44.0,98,70,26,29.90,29.66,2,0,5,0.01
2013-9-2,85.1,67.1,51.3,60.0,54.7,50.0,97,69,31,29.85,29.70,3,0,6,0.00
2013-9-3,76.4,64.4,55.4,61.0,56.2,52.0,95,76,52,29.95,29.84,0,0,7,0.00
2013-9-4,84.5,66.2,51.6,65.0,55.8,50.0,96,73,39,29.95,29.83,3,0,4,0.00
2013-9-5,77.1,64.9,56.8,66.0,60.6,54.0,98,87,62,29.95,29.74,0,0,9,0.02
2013-9-6,62.8,57.8,53.5,61.0,56.7,53.0,98,96,82,30.07,29.85,0,0,2,0.18
2013-9-7,61.3,56.7,53.5,60.0,56.0,53.0,99,97,95,30.07,30.01,0,0,0,0.13
2013-9-8,76.5,61.1,49.8,63.0,55.5,49.0,99,84,53,30.07,29.92,1,0,8,0.00
2013-9-9,80.9,63.1,49.5,61.0,54.6,49.0,98,78,39,29.98,29.86,1,0,5,0.00
2013-9-10,82.2,62.7,47.2,63.0,54.3,46.0,98,78,39,30.00,29.89,0,0,3,0.00
2013-9-11,84.8,63.4,46.6,62.0,53.5,46.0,98,76,30,30.05,29.93,2,0,3,0.00
2013-9-12,87.0,64.4,47.6,63.0,54.8,47.0,98,76,32,30.00,29.79,0,0,2,0.00
2013-9-13,86.7,66.7,49.9,65.0,57.2,49.0,98,76,37,29.85,29.69,1,0,6,0.00
2013-9-14,86.7,66.7,50.5,67.0,57.6,49.0,98,77,32,29.82,29.70,1,0,6,0.00
2013-9-15,83.3,66.7,54.1,63.0,56.6,51.0,96,74,34,29.74,29.54,3,0,8,0.26
2013-9-16,68.4,59.1,51.5,57.0,53.8,49.0,98,84,58,29.81,29.68,3,0,7,0.00
2013-9-17,64.8,54.5,45.5,53.0,48.4,44.0,98,81,60,29.82,29.69,4,0,7,0.00
2013-9-18,63.7,51.7,41.6,49.0,44.1,40.0,95,77,51,30.06,29.82,3,0,7,0.00
2013-9-19,66.7,49.0,33.3,50.0,41.4,32.0,98,78,42,30.11,29.91,1,0,4,0.00
2013-9-20,69.0,51.5,34.4,55.0,44.4,33.0,98,80,42,29.92,29.57,0,0,4,0.00
2013-9-21,65.7,54.4,44.1,52.0,46.4,42.0,98,77,43,29.65,29.58,3,0,7,0.00
2013-9-22,55.0,46.7,42.0,50.0,44.5,40.0,98,92,75,29.73,29.60,0,0,0,0.19
2013-9-23,53.2,47.1,42.0,51.0,45.8,41.0,98,95,84,29.93,29.73,0,0,2,0.03
2013-9-24,57.3,46.7,38.1,46.0,41.9,37.0,98,85,55,29.92,29.77,3,0,7,0.00
2013-9-25,60.0,45.7,35.0,49.0,40.8,34.0,98,85,52,29.96,29.81,2,0,9,0.02
2013-9-26,57.7,45.6,37.1,47.0,41.1,36.0,98,85,54,30.10,29.96,0,0,5,0.00
2013-9-27,49.0,42.8,34.4,46.0,41.2,33.0,97,94,83,30.11,29.88,0,0,1,0.11
2013-9-28,48.0,44.6,40.2,47.0,43.9,39.0,98,97,96,29.88,29.40,0,0,1,0.77
2013-9-29,49.7,44.4,37.5,49.0,43.6,37.0,99,97,88,29.58,29.30,2,0,2,0.22
2013-9-30,45.2,39.4,34.3,45.0,38.8,34.0,98,97,95,29.93,29.40,1,0,3,1.11
2013-10-1,48.7,40.0,32.9,45.0,38.6,32.0,99,95,79,30.13,29.93,2,0,4,0.08
2013-10-2,47.5,41.3,35.3,45.0,40.2,35.0,99,96,87,30.15,30.05,0,0,2,0.21
2013-10-3,53.3,41.5,32.1,47.0,38.9,31.0,99,91,70,30.47,30.16,2,0,5,0.00
2013-10-4,57.8,40.5,29.8,47.0,36.5,29.0,98,87,47,30.56,30.41,0,0,2,0.00
2013-10-5,61.3,43.4,30.5,48.0,38.7,30.0,98,85,52,30.45,30.27,1,0,2,0.00
2013-10-6,60.8,43.5,31.9,49.0,39.7,31.0,98,88,56,30.28,29.92,1,0,2,0.00
2013-10-7,56.3,43.6,36.1,49.0,40.5,35.0,98,89,67,29.95,29.87,2,0,6,0.00
2013-10-8,48.5,41.7,35.6,45.0,39.7,34.0,98,93,77,30.07,29.88,5,0,5,0.23
2013-10-9,55.1,39.8,28.4,45.0,36.0,27.0,98,87,52,30.17,29.92,1,0,2,0.00
2013-10-12,51.7,44.9,40.6,45.0,34.5,-99.9,95,81,64,30.19,30.07,0,-26,1,0.00
2013-10-13,57.0,43.1,32.1,44.0,38.3,31.0,98,85,54,30.32,30.19,0,0,4,0.00
2013-10-19,38.3,33.2,35.0,36.0,10.5,-99.9,95,78,94,30.19,30.17,0,-91,0,0.00
2013-10-20,64.2,42.4,29.7,51.0,38.9,29.0,98,89,55,30.23,30.11,0,0,1,0.00
2013-10-21,64.4,43.2,30.6,52.0,39.7,30.0,98,89,51,30.24,30.13,0,0,3,0.00
2013-10-22,62.7,42.6,30.4,51.0,39.3,29.0,98,89,58,30.23,30.10,0,0,2,0.00
2013-10-23,61.6,42.0,30.1,51.0,38.9,29.0,98,90,59,30.20,30.10,0,0,2,0.00
2013-10-24,58.9,42.0,30.1,49.0,39.0,29.0,98,90,65,30.18,30.07,0,0,2,0.00
2013-10-25,59.0,40.0,29.4,49.0,37.4,28.0,98,91,65,30.31,30.17,0,0,1,0.00
2013-10-26,57.3,39.4,29.4,48.0,36.9,28.0,98,91,67,30.35,30.10,0,0,1,0.00
2013-10-27,52.0,42.5,34.8,46.0,40.3,34.0,98,92,69,30.09,29.82,0,0,3,0.00
2013-10-28,53.2,40.6,28.0,40.0,30.3,-99.9,95,75,36,29.98,29.89,1,-10,5,0.00
2013-10-29,49.6,32.1,23.0,35.0,27.6,22.0,97,85,46,30.07,29.97,1,0,2,0.00
2013-10-30,55.7,37.1,25.1,40.0,30.2,24.0,97,79,40,30.10,30.05,4,0,6,0.00
2013-10-31,55.9,44.7,34.4,45.0,40.0,33.0,96,84,63,30.20,30.04,2,0,7,0.00
2013-11-1,55.7,40.2,29.3,48.0,37.4,28.0,98,90,65,30.28,29.92,0,0,1,0.00
2013-11-2,42.7,39.4,33.4,42.0,38.6,33.0,98,97,95,29.92,29.51,1,0,2,0.76
2013-11-3,40.4,34.6,27.3,39.0,33.2,26.0,98,94,77,30.09,29.80,0,0,8,0.03
2013-11-4,39.4,29.4,22.1,31.0,26.2,21.0,97,89,54,30.21,30.09,2,0,2,0.00
2013-11-5,36.6,32.6,29.8,36.0,31.8,28.0,97,96,94,30.24,30.14,0,0,1,0.10
2013-11-6,36.3,33.3,30.7,36.0,32.6,30.0,98,97,94,30.39,30.25,0,0,2,0.04
2013-11-7,35.5,32.9,32.3,35.0,32.5,32.0,98,98,97,30.28,29.80,0,0,0,0.26
2013-11-8,42.7,34.9,29.3,41.0,34.1,29.0,99,97,88,30.20,29.94,1,0,5,0.26
2013-11-9,37.0,32.4,28.8,37.0,31.9,28.0,98,98,97,30.23,30.17,0,0,0,0.14
2013-11-10,40.0,36.0,32.4,40.0,35.6,32.0,99,98,98,30.30,30.18,0,0,0,0.12
2013-11-11,44.0,39.8,37.4,43.0,39.3,37.0,99,98,95,30.39,30.27,0,0,1,0.01
2013-11-12,45.5,41.3,37.8,45.0,40.8,37.0,99,98,95,30.36,30.24,0,0,1,0.07
2013-11-13,47.9,39.9,33.7,47.0,39.1,33.0,99,97,90,30.38,30.27,1,0,7,0.01
2013-11-14,47.6,36.3,29.6,43.0,34.3,29.0,99,93,73,30.27,30.00,3,0,6,0.00
2013-11-15,42.8,36.2,29.0,36.0,32.8,28.0,98,88,67,30.00,29.25,4,0,8,0.24
2013-11-16,38.6,33.2,30.3,38.0,32.6,30.0,99,97,92,29.70,29.26,0,0,4,0.24
2013-11-17,33.7,32.2,29.6,33.0,31.6,29.0,98,98,97,29.89,29.69,0,0,0,0.08
2013-11-18,43.9,36.9,32.7,44.0,36.6,32.0,99,99,98,29.87,29.62,0,0,1,0.74
2013-11-19,43.8,36.8,29.4,41.0,34.1,28.0,99,90,71,29.95,29.52,2,0,11,0.19
2013-11-20,35.2,26.4,18.6,28.0,21.9,16.0,96,84,50,30.55,29.95,0,0,2,0.00
2013-11-21,32.3,21.6,14.5,24.0,17.4,13.0,95,85,55,30.78,30.55,0,0,1,0.00
2013-11-22,34.0,21.9,14.3,24.0,17.5,12.0,95,84,56,30.88,30.76,0,0,1,0.00
2013-11-23,33.7,21.8,13.6,25.0,18.1,12.0,96,86,62,30.76,30.45,0,0,1,0.00
2013-11-24,36.6,25.6,18.2,26.0,21.8,17.0,95,86,61,30.47,30.37,0,0,2,0.01
2013-11-25,39.5,27.8,19.0,30.0,24.2,18.0,96,87,59,30.52,30.46,0,0,1,0.00
2013-11-26,34.6,25.9,19.4,30.0,23.8,18.0,96,91,78,30.46,30.27,0,0,0,0.00
2013-11-27,38.1,28.3,22.4,31.0,26.1,21.0,96,91,75,30.27,30.18,0,0,0,0.00
2013-11-28,37.3,25.1,17.6,33.0,23.3,16.0,97,93,82,30.30,30.20,0,0,1,0.00
2013-11-29,33.2,27.2,21.0,32.0,25.9,20.0,96,95,90,30.34,30.27,0,0,2,0.00
2013-11-30,38.5,31.1,27.2,37.0,30.3,26.0,98,96,93,30.35,30.17,0,0,1,0.02
2013-12-1,32.5,32.1,31.4,32.0,31.7,31.0,98,98,97,30.16,29.67,0,0,2,0.81
2013-12-2,33.8,30.4,25.8,32.0,29.6,25.0,98,96,93,30.04,29.70,0,0,3,0.11
2013-12-3,29.6,22.2,16.9,27.0,20.9,15.0,97,94,89,30.37,30.04,0,0,1,0.00
2013-12-4,23.1,17.8,14.1,21.0,16.0,12.0,94,92,87,30.44,30.37,0,0,1,0.00
2013-12-5,18.0,15.2,8.4,16.0,12.7,6.0,93,89,84,30.39,30.33,1,0,1,0.00
2013-12-6,16.8,12.7,5.8,14.0,10.4,3.0,92,90,84,30.39,30.32,0,0,2,0.00
2013-12-7,5.4,0.3,-2.6,3.0,-2.5,-6.0,90,88,87,30.45,30.36,0,0,0,0.00
2013-12-11,19.7,17.3,15.7,18.0,15.5,14.0,93,93,92,30.44,30.41,0,0,0,0.00
2013-12-12,27.8,23.1,15.7,26.0,21.6,14.0,96,93,85,30.41,30.19,0,0,0,0.00
2013-12-13,34.8,27.9,20.7,34.0,27.1,19.0,98,96,94,30.46,30.23,0,0,2,0.03
2013-12-14,37.0,31.8,28.6,37.0,31.3,28.0,99,98,97,30.45,30.29,1,0,4,0.01
2013-12-15,47.8,40.7,33.9,40.0,36.8,33.0,99,86,70,30.32,30.25,2,0,8,0.81
2013-12-16,42.3,33.5,26.6,35.0,30.4,26.0,96,89,73,30.45,30.31,2,0,6,0.00
2013-12-17,41.5,29.5,21.5,37.0,28.1,20.0,97,94,82,30.33,30.02,2,0,7,0.00
2013-12-18,42.9,35.0,21.6,37.0,27.5,19.0,91,75,57,30.11,29.92,2,0,7,0.00
2013-12-19,32.8,23.2,15.4,23.0,17.6,13.0,94,81,44,30.34,30.10,0,0,1,0.00
2013-12-20,32.2,27.1,20.3,32.0,25.4,17.0,97,93,86,30.14,29.68,0,0,2,0.00
2013-12-21,32.3,26.2,20.5,31.0,24.9,19.0,96,95,91,30.16,29.82,0,0,2,0.00
2013-12-22,32.1,28.1,24.8,31.0,27.0,24.0,97,95,92,30.32,30.16,0,0,1,0.00
2013-12-23,37.3,31.8,27.9,37.0,31.2,27.0,98,98,97,30.45,30.05,1,0,2,0.23
2013-12-24,34.6,28.5,22.2,34.0,27.7,21.0,98,97,95,30.59,30.45,0,0,4,0.01
2013-12-25,31.4,23.6,17.2,30.0,22.5,16.0,97,95,94,30.60,30.48,0,0,0,0.00
2013-12-26,33.0,25.0,20.5,31.0,23.9,19.0,98,95,92,30.47,30.36,0,0,1,0.00
2013-12-27,32.4,27.4,20.8,32.0,26.7,20.0,98,97,95,30.36,30.14,0,0,2,0.01
2013-12-28,33.5,27.4,23.0,33.0,26.7,22.0,98,97,96,30.53,30.35,0,0,1,0.00
2013-12-29,40.2,29.5,22.2,38.0,28.5,21.0,99,95,90,30.50,30.27,1,0,6,0.03
2013-12-30,32.1,29.1,26.3,31.0,28.2,25.0,98,96,95,30.34,30.14,1,0,1,0.00
2013-12-31,44.0,32.1,27.0,39.0,30.4,26.0,99,94,74,30.38,30.16,1,0,4,0.04
2014-1-1,36.4,28.3,22.7,33.0,26.8,22.0,98,94,83,30.47,30.38,0,0,2,0.01
2014-1-2,33.2,31.2,28.1,33.0,30.4,27.0,98,96,93,30.38,29.86,0,0,2,0.26